OSCAR 7 1 07530U 74089B 26103.77267182 -.00000027 00000-0 12067-3 0 9994 2 07530 101.9944 116.3401 0011879 253.5120 287.5368 12.53697056352446 OSCAR 11 (UOSAT 2) 1 14781U 84021B 26103.84967011 .00000994 00000-0 10712-3 0 9990 2 14781 97.8005 70.1724 0008686 45.1690 315.0233 14.90629114247542 OSCAR 19 (LUSAT) 1 20442U 90005G 26103.50598712 .00000090 00000-0 48733-4 0 9993 2 20442 98.8902 123.5152 0012260 40.4067 319.8025 14.34102723893129 EYESAT A 1 22825U 93061C 26103.45971415 .00000053 00000-0 37385-4 0 9994 2 22825 98.6919 170.8843 0007280 293.2171 66.8245 14.30924749697743 ITAMSAT 1 22826U 93061D 26103.94769866 .00000059 00000-0 39223-4 0 9993 2 22826 98.6867 171.2834 0007729 272.3973 87.6325 14.31350059698128 RADIO ROSTO 1 23439U 94085A 26103.81639815 -.00000054 00000-0 -31356-3 0 9992 2 23439 64.8189 47.3190 0154016 15.5614 344.9970 11.27583835288649 JAS 2 1 24278U 96046B 26103.83875699 -.00000018 00000-0 21030-4 0 9995 2 24278 98.5322 321.4943 0348815 263.4132 92.7196 13.53271091464460 TECHSAT 1B 1 25397U 98043D 26103.51078617 .00000039 00000-0 37238-4 0 9996 2 25397 99.0057 94.6453 0002164 63.7631 296.3769 14.24415573442129 ISS (ZARYA) 1 25544U 98067A 26103.81207643 .00004629 00000-0 92443-4 0 9990 2 25544 51.6318 258.6924 0006490 309.0204 51.0206 15.48899060561779 PCSAT 1 26931U 01043C 26103.27235909 .00000095 00000-0 66340-4 0 9995 2 26931 67.0513 52.1669 0006698 264.3866 95.6472 14.31930561281151 SAUDISAT 1C 1 27607U 02058C 26103.88916978 .00000519 00000-0 79302-4 0 9995 2 27607 64.5528 327.9012 0075531 274.1665 85.0811 14.82906861254920 CUTE-1 1 27844U 03031E 26103.75937084 .00000217 00000-0 11299-3 0 9992 2 27844 98.6766 113.1241 0009892 19.9623 340.1941 14.24295359182502 CUBESAT XI 4 1 27848U 03031J 26103.57507157 .00000185 00000-0 10026-3 0 9991 2 27848 98.6796 112.7063 0010141 37.9126 322.2765 14.23586039182189 MOZHAYETS 4 1 27939U 03042A 26103.98660903 .00001146 00000-0 18516-3 0 9998 2 27939 98.3466 286.5367 0012444 110.0195 45.5411 14.73354046206091 CUBESAT XI 5 1 28895U 05043F 26103.37410129 .00001027 00000-0 16998-3 0 9999 2 28895 98.2901 257.6702 0015014 54.8636 305.3975 14.72461498 92217 CUTE-1.7+APD 2 1 32785U 08021C 26103.93329084 .00002964 00000-0 19245-3 0 9991 2 32785 97.8245 84.0618 0007251 241.8139 118.2357 15.08850850975505 SEEDS 1 32791U 08021J 26103.71789896 .00010664 00000-0 36319-3 0 9992 2 32791 97.7525 98.6538 0004058 140.6517 219.5019 15.30587421977421 YUBELEINY 1 32953U 08025A 26103.95740091 .00000017 00000-0 48331-4 0 9995 2 32953 82.5061 35.3848 0020582 90.4739 269.8700 12.43177591811716 KKS-1 (KISEKI) 1 33499U 09002H 26103.89009610 .00000891 00000-0 11653-3 0 9991 2 33499 98.1189 25.3241 0008850 131.6145 228.5828 14.82957909926663 SWISSCUBE 1 35932U 09051B 26103.51136418 .00000677 00000-0 14368-3 0 9993 2 35932 98.4073 10.2684 0007982 59.1341 301.0644 14.62355072879709 BEESAT 1 35933U 09051C 26103.96679004 .00000549 00000-0 12025-3 0 9992 2 35933 98.4001 10.5003 0006543 70.7452 289.4456 14.61614137879803 ITUPSAT 1 1 35935U 09051E 26103.21647513 .00000543 00000-0 12241-3 0 9996 2 35935 98.4089 8.9982 0008788 81.2079 279.0115 14.60341642879256 XIWANG-1 (HOPE-1) 1 36122U 09072B 26103.87262859 -.00000336 00000-0 -76309-3 0 9993 2 36122 100.3965 58.7487 0007853 24.8626 335.2864 13.16435869784545 TISAT 1 1 36799U 10035E 26103.25796588 .00011880 00000-0 42078-3 0 9997 2 36799 98.0668 44.1976 0004663 104.0038 256.1718 15.29289003857772 JUGNU 1 37839U 11058B 26103.09993093 .00000416 00000-0 77973-4 0 9997 2 37839 19.9624 343.8498 0018598 77.9279 82.2734 14.13756645749800 SRMSAT 1 37841U 11058D 26103.62860019 .00000366 00000-0 54606-4 0 9992 2 37841 19.9715 90.2239 0011665 212.7502 304.3821 14.11560064748682 HORYU 2 1 38340U 12025D 26103.80783573 .00001537 00000-0 16286-3 0 9993 2 38340 98.2069 234.1663 0008684 40.5161 319.6701 14.90681698739134 STRAND 1 1 39090U 13009E 26103.79428196 .00000215 00000-0 86532-4 0 9998 2 39090 98.3911 285.6170 0009748 67.2732 292.9485 14.37124924687814 CUBEBUG 1 1 39153U 13018D 26103.40290730 .00001577 00000-0 14277-3 0 9995 2 39153 98.1595 260.5054 0011824 9.1339 351.0094 14.96907050701374 ZACUBE 1 39417U 13066B 26103.87384571 .00002265 00000-0 18020-3 0 9994 2 39417 97.8124 65.8697 0044987 106.3773 254.2403 15.00662603671088 TRITON 1 1 39427U 13066M 26103.93235341 .00001980 00000-0 24197-3 0 9997 2 39427 97.8277 15.2088 0092101 83.7916 277.3779 14.81396509664574 GOMX 1 1 39430U 13066Q 26103.83146691 .00001132 00000-0 17770-3 0 9997 2 39430 97.6541 308.3431 0127674 284.4704 74.2365 14.69231501660462 CUBEBUG 2 1 39440U 13066AA 26103.81260906 .00002358 00000-0 22396-3 0 9993 2 39440 97.8858 52.5627 0056480 240.0758 119.4845 14.93331692667386 FUNCUBE 1 1 39444U 13066AE 26103.86977851 .00005501 00000-0 35027-3 0 9994 2 39444 97.8226 74.0354 0038589 63.9684 296.5509 15.08574092669965 UWE-3 1 39446U 13066AG 26103.43540103 .00002441 00000-0 21488-3 0 9991 2 39446 97.8655 59.1237 0049495 173.3046 186.8847 14.96527693667890 UNISAT 6 1 40012U 14033C 26103.84845158 .00001755 00000-0 19465-3 0 9999 2 40012 97.7790 257.7392 0043937 280.7141 78.9131 14.87875022636594 DUCHIFAT 1 1 40021U 14033M 26103.38428452 .00040345 00000-0 61069-3 0 9997 2 40021 98.0566 154.0201 0002966 293.3943 66.6996 15.54569735645650 QB50P1 1 40025U 14033R 26103.73771772 .00004712 00000-0 24028-3 0 9998 2 40025 98.0999 110.4109 0010795 88.2709 271.9759 15.17254681643259 OBJECT G 1 40905U 15049G 26103.87518061 .00022179 00000-0 25677-3 0 9996 2 40905 97.4647 144.2969 0007275 98.7292 261.4790 15.61828326586392 LILACSAT 2 1 40908U 15049K 26103.85795253 .00010264 00000-0 18876-3 0 9992 2 40908 97.4750 138.3261 0008813 120.6577 239.5544 15.49367070585784 LQSAT 1 40958U 15057A 26103.97076654 .00000815 00000-0 12295-3 0 9996 2 40958 97.6680 100.5352 0018345 118.0648 242.2420 14.76702798565833 CHUBUSAT 2 1 41338U 16012B 26103.94559027 .00003808 00000-0 16613-3 0 9991 2 41338 30.9990 22.7541 0008464 143.2947 216.8274 15.20239999558630 CHUBUSAT 3 1 41339U 16012C 26103.90968664 .00003651 00000-0 16975-3 0 9996 2 41339 31.0055 31.0765 0008832 132.2338 227.9053 15.18032738558421 PRATHAM 1 41783U 16059A 26103.52148622 .00000498 00000-0 96263-4 0 9997 2 41783 97.8327 103.2267 0032656 65.8424 294.6189 14.67105417510037 ALSAT 1N 1 41789U 16059G 26103.96263105 .00000815 00000-0 14568-3 0 9995 2 41789 97.8031 110.1761 0026968 36.0293 324.2724 14.69201717510570